• In Schweiz
  • Länderverzeichnis
  • Für 7 Tage
  • Wassertemperatur
  • Satellitenkarten
  • Wetterkarte
  • Widgets
  • user-avatar
    Anmelden

    Stündliche Wetter Spasovschina

    Heute, 17 August, Freitag

    Zeit Temperatur Niederschläge Wind Luftdruck Luftfeuchtigkeit
    00:00 +15°C° 0 mm 1 m/S 758 mmHg 86%
    01:00 +14°C° 0 mm 2 m/S 758 mmHg 88%
    02:00 +14°C° 0 mm 2 m/S 759 mmHg 90%
    03:00 +14°C° 0 mm 2 m/S 759 mmHg 91%
    04:00 +14°C° 0 mm 2 m/S 759 mmHg 92%
    05:00 +14°C° 0 mm 2 m/S 759 mmHg 93%
    06:00 +15°C° 0 mm 2 m/S 759 mmHg 87%
    07:00 +17°C° 0 mm 2 m/S 759 mmHg 81%
    08:00 +19°C° 0 mm 2 m/S 759 mmHg 75%
    09:00 +20°C° 0 mm 2 m/S 759 mmHg 70%
    10:00 +23°C° 0 mm 2 m/S 759 mmHg 64%
    11:00 +24°C° 0 mm 3 m/S 759 mmHg 59%
    12:00 +25°C° 0 mm 3 m/S 759 mmHg 57%
    13:00 +25°C° 0 mm 3 m/S 758 mmHg 55%
    14:00 +26°C° 0 mm 3 m/S 758 mmHg 53%
    15:00 +26°C° 0 mm 2 m/S 758 mmHg 55%
    16:00 +25°C° 0 mm 2 m/S 758 mmHg 57%
    17:00 +25°C° 0 mm 2 m/S 757 mmHg 59%
    18:00 +23°C° 0 mm 2 m/S 757 mmHg 67%
    19:00 +21°C° 0 mm 2 m/S 757 mmHg 74%
    20:00 +19°C° 0 mm 2 m/S 757 mmHg 81%
    21:00 +18°C° 0 mm 2 m/S 757 mmHg 83%
    22:00 +17°C° 0 mm 2 m/S 757 mmHg 85%
    23:00 +17°C° 0 mm 2 m/S 757 mmHg 87%

    Morgen, 18 August, Samstag

    Zeit Temperatur Niederschläge Wind Luftdruck Luftfeuchtigkeit
    00:00 +16°C° 0 mm 2 m/S 757 mmHg 88%
    01:00 +16°C° 0 mm 2 m/S 757 mmHg 90%
    02:00 +16°C° 0 mm 2 m/S 757 mmHg 92%
    03:00 +16°C° 0 mm 2 m/S 757 mmHg 93%
    04:00 +16°C° 0 mm 2 m/S 757 mmHg 95%
    05:00 +15°C° 0 mm 2 m/S 757 mmHg 96%
    06:00 +17°C° 0 mm 2 m/S 757 mmHg 90%
    07:00 +19°C° 0 mm 2 m/S 757 mmHg 85%
    08:00 +20°C° 0 mm 2 m/S 757 mmHg 79%
    09:00 +22°C° 0,1 mm 3 m/S 757 mmHg 74%
    10:00 +24°C° 0,1 mm 3 m/S 756 mmHg 68%
    11:00 +26°C° 0,1 mm 3 m/S 756 mmHg 63%
    12:00 +26°C° 0,2 mm 3 m/S 756 mmHg 63%
    13:00 +26°C° 0,2 mm 3 m/S 756 mmHg 63%
    14:00 +27°C° 0,2 mm 3 m/S 755 mmHg 62%
    15:00 +26°C° 1,2 mm 3 m/S 755 mmHg 70%
    16:00 +25°C° 1,2 mm 3 m/S 755 mmHg 78%
    17:00 +24°C° 1,2 mm 2 m/S 755 mmHg 85%
    18:00 +23°C° 0,3 mm 2 m/S 754 mmHg 88%
    19:00 +21°C° 0,3 mm 2 m/S 754 mmHg 91%
    20:00 +20°C° 0,3 mm 2 m/S 754 mmHg 94%
    21:00 +19°C° 0,2 mm 2 m/S 754 mmHg 95%
    22:00 +19°C° 0,2 mm 2 m/S 754 mmHg 96%
    23:00 +18°C° 0,2 mm 2 m/S 754 mmHg 97%

    übermorgen, 19 August, Sonntag

    Zeit Temperatur Niederschläge Wind Luftdruck Luftfeuchtigkeit
    00:00 +18°C° 0 mm 2 m/S 754 mmHg 97%
    01:00 +18°C° 0 mm 2 m/S 754 mmHg 97%
    02:00 +18°C° 0 mm 2 m/S 754 mmHg 98%
    03:00 +17°C° 0 mm 2 m/S 753 mmHg 98%
    04:00 +17°C° 0 mm 2 m/S 753 mmHg 98%
    05:00 +17°C° 0 mm 2 m/S 753 mmHg 98%
    06:00 +18°C° 0 mm 2 m/S 753 mmHg 95%
    07:00 +19°C° 0 mm 2 m/S 753 mmHg 93%
    08:00 +20°C° 0 mm 2 m/S 753 mmHg 90%
    09:00 +21°C° 0,3 mm 3 m/S 753 mmHg 85%
    10:00 +22°C° 0,3 mm 3 m/S 753 mmHg 79%
    11:00 +23°C° 0,3 mm 4 m/S 752 mmHg 73%
    12:00 +23°C° 0,2 mm 4 m/S 752 mmHg 68%
    13:00 +25°C° 0,2 mm 4 m/S 752 mmHg 63%
    14:00 +25°C° 0,2 mm 4 m/S 752 mmHg 58%
    15:00 +23°C° 0,2 mm 4 m/S 752 mmHg 62%
    16:00 +22°C° 0,2 mm 4 m/S 752 mmHg 67%
    17:00 +21°C° 0,2 mm 4 m/S 752 mmHg 72%
    18:00 +20°C° 0,3 mm 3 m/S 752 mmHg 79%
    19:00 +19°C° 0,3 mm 3 m/S 752 mmHg 87%
    20:00 +17°C° 0,3 mm 3 m/S 752 mmHg 95%
    21:00 +17°C° 0,1 mm 3 m/S 752 mmHg 95%
    22:00 +17°C° 0,1 mm 3 m/S 752 mmHg 95%
    23:00 +16°C° 0,1 mm 3 m/S 753 mmHg 96%

    20 August, Montag

    Zeit Temperatur Niederschläge Wind Luftdruck Luftfeuchtigkeit
    00:00 +14°C° 0 mm 3 m/S 753 mmHg 96%
    01:00 +14°C° 0 mm 3 m/S 753 mmHg 96%
    02:00 +13°C° 0 mm 3 m/S 753 mmHg 96%
    03:00 +12°C° 0 mm 3 m/S 753 mmHg 96%
    04:00 +13°C° 0 mm 2 m/S 754 mmHg 96%
    05:00 +12°C° 0 mm 2 m/S 754 mmHg 97%
    06:00 +14°C° 0 mm 2 m/S 754 mmHg 94%
    07:00 +15°C° 0 mm 2 m/S 754 mmHg 91%
    08:00 +16°C° 0 mm 2 m/S 755 mmHg 88%
    09:00 +18°C° 0 mm 2 m/S 755 mmHg 77%
    10:00 +19°C° 0 mm 2 m/S 755 mmHg 66%
    11:00 +21°C° 0 mm 2 m/S 755 mmHg 56%
    12:00 +21°C° 0 mm 2 m/S 755 mmHg 53%
    13:00 +23°C° 0 mm 2 m/S 755 mmHg 50%
    14:00 +23°C° 0 mm 2 m/S 755 mmHg 47%
    15:00 +23°C° 0 mm 2 m/S 755 mmHg 49%
    16:00 +22°C° 0 mm 1 m/S 755 mmHg 52%
    17:00 +22°C° 0 mm 1 m/S 755 mmHg 54%
    18:00 +20°C° 0 mm 1 m/S 755 mmHg 60%
    19:00 +18°C° 0 mm 1 m/S 755 mmHg 66%
    20:00 +16°C° 0 mm 1 m/S 755 mmHg 72%
    21:00 +15°C° 0 mm 1 m/S 756 mmHg 74%
    22:00 +15°C° 0 mm 1 m/S 756 mmHg 77%
    23:00 +14°C° 0 mm 1 m/S 756 mmHg 79%

    21 August, Dienstag

    Zeit Temperatur Niederschläge Wind Luftdruck Luftfeuchtigkeit
    00:00 +14°C° 0 mm 1 m/S 756 mmHg 80%
    01:00 +14°C° 0 mm 1 m/S 756 mmHg 82%
    02:00 +14°C° 0 mm 1 m/S 756 mmHg 84%
    03:00 +13°C° 0 mm 1 m/S 756 mmHg 87%
    04:00 +13°C° 0 mm 1 m/S 756 mmHg 89%
    05:00 +13°C° 0 mm 1 m/S 756 mmHg 92%
    06:00 +14°C° 0 mm 1 m/S 756 mmHg 85%
    07:00 +16°C° 0 mm 2 m/S 756 mmHg 79%
    08:00 +18°C° 0 mm 2 m/S 756 mmHg 73%
    09:00 +19°C° 0 mm 2 m/S 756 mmHg 67%
    10:00 +20°C° 0 mm 3 m/S 756 mmHg 61%
    11:00 +21°C° 0 mm 3 m/S 755 mmHg 55%
    12:00 +22°C° 0 mm 3 m/S 755 mmHg 53%
    13:00 +22°C° 0 mm 4 m/S 755 mmHg 52%
    14:00 +23°C° 0 mm 4 m/S 754 mmHg 50%
    15:00 +23°C° 0 mm 4 m/S 754 mmHg 52%
    16:00 +22°C° 0 mm 4 m/S 754 mmHg 54%
    17:00 +22°C° 0 mm 3 m/S 753 mmHg 56%
    18:00 +21°C° 0 mm 3 m/S 753 mmHg 63%
    19:00 +19°C° 0 mm 3 m/S 753 mmHg 71%
    20:00 +17°C° 0 mm 3 m/S 752 mmHg 78%
    21:00 +17°C° 0 mm 3 m/S 752 mmHg 80%
    22:00 +17°C° 0 mm 3 m/S 752 mmHg 82%
    23:00 +17°C° 0 mm 3 m/S 752 mmHg 84%

    22 August, Mittwoch

    Zeit Temperatur Niederschläge Wind Luftdruck Luftfeuchtigkeit
    00:00 +17°C° 0,1 mm 3 m/S 752 mmHg 87%
    01:00 +17°C° 0,1 mm 4 m/S 752 mmHg 90%
    02:00 +17°C° 0,1 mm 4 m/S 751 mmHg 93%
    03:00 +18°C° 0 mm 4 m/S 751 mmHg 93%
    04:00 +18°C° 0 mm 4 m/S 751 mmHg 93%
    05:00 +18°C° 0 mm 4 m/S 751 mmHg 93%
    06:00 +18°C° 0 mm 4 m/S 751 mmHg 92%
    07:00 +18°C° 0 mm 4 m/S 751 mmHg 91%
    08:00 +18°C° 0 mm 4 m/S 751 mmHg 89%
    09:00 +19°C° 0 mm 5 m/S 751 mmHg 86%
    10:00 +19°C° 0 mm 5 m/S 751 mmHg 84%
    11:00 +20°C° 0 mm 5 m/S 752 mmHg 81%
    12:00 +21°C° 0,1 mm 5 m/S 752 mmHg 76%
    13:00 +21°C° 0,1 mm 5 m/S 752 mmHg 72%
    14:00 +22°C° 0,1 mm 5 m/S 752 mmHg 67%
    15:00 +22°C° 0 mm 5 m/S 752 mmHg 65%
    16:00 +22°C° 0 mm 5 m/S 752 mmHg 64%
    17:00 +22°C° 0 mm 5 m/S 752 mmHg 62%
    18:00 +21°C° 0 mm 4 m/S 752 mmHg 69%
    19:00 +19°C° 0 mm 3 m/S 752 mmHg 75%
    20:00 +17°C° 0 mm 3 m/S 752 mmHg 82%
    21:00 +16°C° 0 mm 2 m/S 753 mmHg 85%
    22:00 +16°C° 0 mm 2 m/S 753 mmHg 88%
    23:00 +15°C° 0 mm 2 m/S 753 mmHg 91%
    Mehr zeigen